{"data":{"norad_id":41550,"epoch":"2026-05-20T11:37:22.194624Z","epoch_age_seconds":461055,"freshness":"STALE","line1":"1 41550U 16030B   26140.48428466  .00000004  00000+0  00000+0 0  9992","line2":"2 41550  55.1019 222.4550 0003239 230.5838 129.4530  1.70473990 62196","mean_motion":1.7047399,"eccentricity":0.0003239,"inclination_deg":55.1019,"raan_deg":222.455,"arg_perigee_deg":230.5838,"mean_anomaly_deg":129.453,"bstar":0,"rev_number":6219,"period_min":844.70364071375,"perigee_km":23212.596671093,"apogee_km":23231.771759176,"semimajor_km":29600.321215134,"source":"CELESTRAK","updated_at":"2026-05-25T13:38:24.056626Z"}}